STARLINK-11502, 62474

Orbit data source: Space-Track

STARLINK-11502, 62474 is a payload satellite owned by SpaceX/Seattle (US) in LEO that was launched on Tue, 31 Dec 2024 UTC via an FALCON 9 launch vehicle from the Air Force Eastern Test Range (AFETR). Payload-class satellites include a variety of spacecraft equipped with specific instruments for various scientific and technological missions. These include communications satellites like Starlink; space stations such as the ISS; scientific satellites like the Hubble; Earth observation satellites from companies like Planet Labs, Umbra, and HawkEye 360; GPS; miniature CubeSats for education and research; and military/defense satellites.

Loading next visibility...
Identifier
62474, 2024-254N
Orbit
LEO
Last TLE update
8 hours ago
Origin
Manufacturer
SpaceX/Seattle
Mission
Operational Commercial Communications
Bus & Motor
STARLINK V2M, Unknown motor
Mass
730 kg wet, ~700 kg dry
Launch date (UTC)
2024-12-31 (6 months ago)
Launch vehicle
FALCON 9
Launch site
Air Force Eastern Test Range (AFETR)
Object type
Payload
Rocket body
Debris
Shape & HBR
Box + 2 Pan, 29 m
Radar Cross Section
36.964 m², Large (>1 m²)

Expand to show TLE details & history

TLE from 8 hours ago
0 STARLINK-11502
1 62474U 24254N   25192.14847646  .00164807  00000-0  12571-2 0  9993
2 62474  42.9969 238.8597 0001582 288.8630  71.2066 15.70943322 31414
Epoch: 2025-07-11T03:33Z
TLE epoch observation values (Epoch: 2025-07-11T03:33:48.366Z)
Latitude
-0°
Longitude
-103.89639°
Altitude
355.628 km
Speed
7.698 km/s
True Right ascension
15h 55m 26s
True Declination
0° 00' 00"
Sunlit
Object was in full shadow at epoch
Visualization orbit readout
Latitude
-1.1345°
Longitude
-107.02235°
Altitude
355.427 km
Speed
7.698 km/s
Apparent Right ascension
13h 58m 17s
Apparent Declination
-22° 55' 20"
Sunlit
Object is in full shadow
Visualization observer readout
Local Sidereal Time
23:29:08
Azimuth
287.079° WNW
Elevation
-54.284°
Doppler factor
1
Orbital elements
Apogee altitude
359.248 km
Perigee altitude
357.116 km
Semi-major axis
6,736.319 km
Eccentricity
0.00016
Inclination
42.9969°
RAAN
238.8597°
Arg. of periapsis
288.863°
True anomaly
Unknown
Mean anomaly
71.2066°
Eccentric anomaly
Unknown
Mean motion
3.92563 °/min
Orbital period
91.71 mins
BSTAR
0.0012571
Loading maneuver chart data...
Loading SW <> Apogee altitude chart data...
Loading historical data...
Loading historical data...
Loading historical data...
Loading historical data...
Loading historical data...
Loading historical data...
Loading historical data...

STARLINK-11502 Visibility forecast

Observer location: undefined°, undefined°

Span
Click to sort rows by Start time (UTC) header in descending order
Start Az.
Max El. time (UTC)
Max El. Az.
Max El.
End time (UTC)
End Az.
5 mins2025-07-11 11:38:08.141Z282.665° WNW2025-07-11 11:41:08.141Z156.635° SSE37.922°2025-07-11 11:43:08.141Z123.274° SE
4 mins2025-07-12 07:18:08.141Z250.281° W2025-07-12 07:19:08.141Z245.705° WSW44.438°2025-07-12 07:22:08.141Z72.012° E
4 mins2025-07-12 08:54:08.141Z299.103° NW2025-07-12 08:55:08.141Z333.292° NNW32.822°2025-07-12 08:58:08.141Z71.283° E
4 mins2025-07-12 10:30:08.141Z293.669° NW2025-07-12 10:32:08.141Z70.36° E41.62°2025-07-12 10:34:08.141Z100.365° ESE
|